Regional Weather Roundup
Issued by NWS

Home | Current Version | Previous Version | Graphics & Text | Print | Product List | Glossary On
Versions: 1 2 3 4 5 6 7 8 9 10 11 12 13 14 15 16 17 18 19 20 21 22 23 24 25 26 27 28 29 30 31 32 33 34 35 36 37 38 39 40 41 42 43 44 45 46 47 48 49 50
507
ASUS43 KOAX 260010
RWRNE

WEATHER ROUNDUP FOR NEBRASKA
NATIONAL WEATHER SERVICE OMAHA NE
700 PM CDT MON JUL 25 2016

NOTES: SATELLITE DATA IS BEING USED TO AUGMENT CLOUD COVER ABOVE
       12000 FEET.
       "FAIR" INDICATES FEW OR NO CLOUDS BELOW 12,000 FEET WITH NO
       SIGNIFICANT WEATHER AND/OR OBSTRUCTIONS TO VISIBILITY.

  * THESE STATIONS DO NOT REPORT WEATHER SUCH AS RAIN...SNOW OR FOG.

NEZ001>004-019>022-054>056-260100-
NEBRASKA PANHANDLE

CITY           SKY/WX    TMP DP  RH WIND       PRES   REMARKS
SCOTTSBLUFF    SUNNY     93  54  26 SE15      30.02F HX  91
6HR MIN TEMP:  85; 6HR MAX TEMP:  95;

ALLIANCE       SUNNY     86  61  42 S18G25    30.05F
6HR MIN TEMP:  81; 6HR MAX TEMP:  88;

CHADRON        SUNNY     93  56  28 S16       29.99S HX  91
6HR MIN TEMP:  86; 6HR MAX TEMP:  94;

KIMBALL        SUNNY     86  60  40 S17G25    30.12S
SIDNEY         SUNNY     87  61  41 S20G31    30.11F
6HR MIN TEMP:  82; 6HR MAX TEMP:  89;

$$

NEZ057>060-069>072-079>082-260100-
SOUTHWEST NEBRASKA

CITY           SKY/WX    TMP DP  RH WIND       PRES   REMARKS
NORTH PLATTE   SUNNY     84  67  56 SE8       30.06F
6HR MIN TEMP:  82; 6HR MAX TEMP:  86;

IMPERIAL       SUNNY     87  58  37 S15       30.06F
6HR MIN TEMP:  82; 6HR MAX TEMP:  91;

LEXINGTON      SUNNY     84  67  54 SE10      30.06S
MCCOOK         SUNNY     88  64  44 SE13      30.04F
6HR MIN TEMP:  84; 6HR MAX TEMP:  90;

OGALLALA       MOSUNNY   88  57  34 SE14      30.06S
$$

NEZ005>010-023>029-035>040-094-260100-
NORTH CENTRAL NEBRASKA

CITY           SKY/WX    TMP DP  RH WIND       PRES   REMARKS
VALENTINE      SUNNY     88  57  34 S15       30.04F
6HR MIN TEMP:  87; 6HR MAX TEMP:  92;

AINSWORTH      SUNNY     84  58  39 S15       30.07S
BROKEN BOW     SUNNY     83  65  54 SE12      30.07F
6HR MIN TEMP:  80; 6HR MAX TEMP:  85;

O`NEILL        SUNNY     87  48  25 SE10      30.06F
ORD            SUNNY     85  61  44 S7        30.04F
6HR MIN TEMP:  81; 6HR MAX TEMP:  87;

THEDFORD       SUNNY     86  63  46 S15G21    30.08S
$$

NEZ041-046>049-061>064-073>077-083>087-260100-
SOUTH CENTRAL NEBRASKA

CITY           SKY/WX    TMP DP  RH WIND       PRES   REMARKS
GRAND ISLAND   SUNNY     84  62  47 E9        30.07S
6HR MIN TEMP:  81; 6HR MAX TEMP:  87;

AURORA         SUNNY     83  64  52 E7        30.06S
HASTINGS       SUNNY     84  57  39 E10       30.07R
6HR MIN TEMP:  82; 6HR MAX TEMP:  87;

HEBRON         SUNNY     86  55  35 E10       30.04S
HOLDREGE       SUNNY     84  63  48 SE7       30.06S
KEARNEY *      SUNNY     84  63  48 E9        30.07S
YORK           SUNNY     82  64  54 CALM      30.06S
$$

NEZ011>018-030>034-042>045-260100-
NORTHEAST NEBRASKA

CITY           SKY/WX    TMP DP  RH WIND       PRES   REMARKS
NORFOLK        SUNNY     84  57  39 SE8       30.05F
6HR MIN TEMP:  81; 6HR MAX TEMP:  86;

ALBION         SUNNY     82  64  54 SE7       30.06S
BLAIR          SUNNY     84  66  55 E6        30.05S
FREMONT        SUNNY     84  63  48 NE5       30.05S
TEKAMAH        SUNNY     86  64  47 E5        30.04S
6HR MIN TEMP:  84; 6HR MAX TEMP:  88;

WAYNE          SUNNY     82  66  58 SE6       30.06S
$$

NEZ050>053-065>068-078-088>093-260100-
SOUTHEAST NEBRASKA

CITY           SKY/WX    TMP DP  RH WIND       PRES   REMARKS
LINCOLN        SUNNY     86  63  45 E9        30.05S
6HR MIN TEMP:  84; 6HR MAX TEMP:  89;

OMAHA EPPLEY   MOSUNNY   86  65  49 E7        30.03F
6HR MIN TEMP:  84; 6HR MAX TEMP:  89;

BEATRICE       SUNNY     85  61  43 E9        30.04S
FALLS CITY     SUNNY     84  68  58 NE7       30.03S
6HR MIN TEMP:  82; 6HR MAX TEMP:  86;

NEBRASKA CITY  SUNNY     82  67  60 E7        30.04S
PLATTSMOUTH    SUNNY     83  67  58 NE5       30.04S
$$

NEZ044-045-051>053-067-260100-
OMAHA AREA

CITY           SKY/WX    TMP DP  RH WIND       PRES   REMARKS
OMAHA EPPLEY   MOSUNNY   86  65  49 E7        30.03F
6HR MIN TEMP:  84; 6HR MAX TEMP:  89;

BLAIR          SUNNY     84  66  55 E6        30.05S
FREMONT        SUNNY     84  63  48 NE5       30.05S
MILLARD        SUNNY     86  64  47 NE3       30.03S
OFFUTT AFB     SUNNY     85  67  54 NE7       30.03F
PLATTSMOUTH    SUNNY     83  67  58 NE5       30.04S
WAHOO          FAIR      83  65  53 NE6       30.04F
$$




USA.gov is the U.S. government's official web portal to all federal, state and local government web resources and services.